Location: Heiteren
(47.9693°N, 7.5420°E)
Time: 17:01:18
(UTC+00:00)

Daily predictions for brighter satellites

Satellite Brightness Start Highest point End
(mag) Time Altitude Azimuth Time Altitude Azimuth Time Altitude Azimuth
Cosmos 1455 2.2 20:08:02 10° N 20:11:53 71° E 20:15:43 10° SSE
Cosmos 1825 Rocket 4.1 20:12:05 10° SSE 20:16:16 43° E 20:20:30 10° NNE
ATLAS CENTAUR R/B 2.7 20:15:04 10° NNW 20:18:17 26° NE 20:21:25 10° E
Cosmos 1703 3.5 20:17:05 10° S 20:20:49 49° E 20:24:35 10° NNE
COSMOS 2428 3.8 20:17:20 10° SSE 20:21:47 24° ESE 20:26:16 10° NE
Cosmos 1812 Rocket 3.9 20:17:48 10° NNW 20:22:07 66° W 20:26:24 10° S
Cosmos 1844 3.9 20:17:56 10° NNW 20:23:45 71° ENE 20:29:27 10° SE
Cosmos 2322 4.1 20:20:09 10° S 20:25:29 42° ESE 20:30:51 10° NE
Cosmos 1602 Rocket 4.3 20:25:19 10° SSW 20:29:40 58° WNW 20:34:05 10° N
Cosmos 2263 Rocket 4.3 20:27:37 10° NW 20:31:38 21° W 20:35:38 10° SSW
Cosmos 1709 Rocket 4.2 20:26:17 10° S 20:32:24 58° E 20:38:38 10° NNE
Nadezhda 1 Rocket 4.3 20:26:19 10° NNW 20:32:43 74° W 20:39:04 10° S
MetOp-B 4.4 20:29:07 10° S 20:34:27 72° WSW 20:39:50 10° NNW
Atlas Centaur 2 4.0 20:31:34 10° SSW 20:35:10 16° S 20:38:47 11° SE
Cosmos 2237 Rocket 4.0 20:33:32 10° ESE 20:35:49 12° E 20:38:06 10° ENE
Terra 2.8 20:31:40 10° SE 20:35:54 34° ENE 20:40:13 10° N
CARTOSAT-1 4.0 20:32:57 11° SE 20:36:58 49° ENE 20:41:09 10° N
Cosmos 2333 4.4 20:31:50 10° S 20:37:14 50° ESE 20:42:44 10° NE
Cosmos 2219 Rocket 2.8 20:32:41 10° S 20:37:42 35° ESE 20:42:46 10° NE
Cosmos 2360 Rocket 2.3 20:33:50 10° SSW 20:39:29 88° WNW 20:45:12 10° NNE
IGS 5A 3.5 20:35:59 10° S 20:40:07 81° WSW 20:44:19 10° NNW
Cosmos 2333 Rocket 2.6 20:42:04 10° S 20:47:26 45° ESE 20:52:52 10° NE
ATLAS 2AS CENTAUR R/B 4.0 20:43:40 10° NW 20:50:53 40° NNE 20:57:33 10° E
Cosmos 1315 Rocket 3.5 20:47:12 10° N 20:51:08 43° ENE 20:54:13 15° SE
Resurs 01 Rocket 3.4 20:48:19 10° SSW 20:52:07 28° W 20:55:56 10° NW
Cosmos-2242 3.3 20:50:21 10° NNW 20:54:40 67° W 20:58:59 10° S
Cosmos 1818 3.8 20:49:22 10° SW 20:54:49 78° NW 21:00:18 10° NE
Cosmos 773 Rocket 4.0 20:52:13 10° SSW 20:57:29 70° ESE 21:02:46 10° NNE
SL-16 R/B 4.1 20:53:36 10° WSW 20:58:43 34° NW 21:03:53 10° NNE
Cosmos 2221 3.6 20:55:36 10° N 20:59:35 33° ENE 21:02:29 16° SE
ERS-1 Rocket 3.0 20:56:51 13° SSE 21:01:24 88° ENE 21:06:29 10° NNW
GEOS 3 Rocket 3.7 20:58:03 10° NE 21:03:29 88° ESE 21:08:54 10° SW
USA 215 3.3 21:00:25 10° ENE 21:06:53 58° SE 21:13:19 10° SW
Cosmos 1892 4.3 21:07:01 16° ESE 21:08:31 19° E 21:11:17 10° NE
Cosmos 2278 Rocket 2.9 21:03:11 10° NNW 21:08:39 46° NE 21:13:09 15° SE
ATLAS 5 CENTAUR R/B 2.1 21:07:22 10° SW 21:11:31 63° NW 21:16:14 10° NE
Meteor 1-11 4.2 21:06:27 10° S 21:12:05 87° ESE 21:17:49 10° NNE
Cosmos 1844 Rocket 3.6 21:08:10 10° NW 21:13:23 42° WSW 21:18:16 12° S
Cosmos 1400 Rocket 4.0 21:10:15 10° NNW 21:13:58 38° W 21:17:36 10° SSW
Gblst 52 Del rocket 4.3 21:08:52 10° WNW 21:14:34 89° SSW 21:20:33 12° ESE
SPOT 5 3.0 21:13:56 15° S 21:18:08 76° WSW 21:22:58 10° NNW
Lacrosse 5 rocket 3.8 21:16:56 10° WNW 21:20:20 23° N 21:23:35 10° NE
USA 81 4.1 21:19:52 11° S 21:25:00 82° W 21:30:19 10° N
Cosmos 2058 3.8 21:25:00 22° SE 21:26:53 32° E 21:30:37 10° NNE
BREEZE M DEB (TANK) 2.9 21:25:37 10° W 21:27:34 24° SSW 21:27:39 24° SSW
Cosmos 2181 Rocket 4.2 21:22:33 10° NNW 21:28:53 71° W 21:34:15 14° S
Cosmos 1408 4.2 21:29:06 18° ESE 21:29:59 20° E 21:32:37 10° NE
In-Cosmos 22 Rocket 4.5 21:29:55 21° SSE 21:33:12 47° E 21:38:18 10° NNE
Cosmos 2074 Rocket 4.0 21:29:16 17° S 21:34:11 67° E 21:40:21 10° NNE
TSX-5 4.0 21:31:58 10° NNW 21:35:23 57° ENE 21:37:36 24° SE
Cosmos 1076 Rocket 4.2 21:36:08 24° SE 21:38:04 38° E 21:42:03 10° NNE
Cosmos 1680 Rocket 4.2 21:35:42 22° SSE 21:38:24 37° ESE 21:43:15 10° NE
USA 267 3.3 21:34:04 14° ESE 21:39:56 85° NNE 21:46:32 10° NW
Cosmos 2084 3.8 21:41:30 10° NW 21:45:53 57° SW 21:48:05 27° SSE
Cosmos 1842 Rocket 3.6 21:42:08 10° NNW 21:46:29 72° W 21:49:02 24° S
JB-3 4.1 21:44:05 10° NNE 21:47:56 76° E 21:49:57 27° S
Cosmos 2151 4.5 21:47:18 20° ESE 21:48:39 23° E 21:52:01 10° NE
MTI 3.6 21:48:49 10° NNE 21:51:55 84° WNW 21:53:10 33° SSW
Cosmos 923 Rocket 4.0 21:52:19 21° S 21:55:49 65° ESE 22:01:05 10° NNE
ATLAS CENTAUR R/B 2.0 21:53:50 10° NW 21:57:14 36° WSW 21:58:26 28° SSW
Cosmos 1825 3.3 21:58:09 26° ESE 21:59:01 29° E 22:02:20 10° NNE
ALOS 2 4.0 21:58:03 18° ESE 22:00:20 28° ENE 22:04:06 10° N
Cosmos 2369 Rocket 4.5 21:56:49 10° N 22:00:29 17° NE 22:04:07 10° E
Cosmos 1980 3.8 21:56:55 21° S 22:00:38 60° ESE 22:06:12 10° NNE
Cosmos 967 Rocket 4.5 21:56:24 10° SSW 22:02:51 77° ESE 22:09:20 10° NE
COSMOS 2428 3.2 22:00:01 10° SW 22:05:37 60° WNW 22:11:16 10° NNE
Cosmos 1869 3.9 22:03:33 10° NNW 22:07:25 49° W 22:09:22 26° SSW
GP-B 4.5 22:06:04 10° NNE 22:09:50 26° E 22:11:23 21° ESE
NOSS 0 Rocket 3.9 22:07:31 14° SSW 22:12:59 85° ESE 22:19:12 10° NNE
Terra 3.1 22:10:33 16° SSW 22:13:39 32° W 22:17:56 10° NNW
Cosmos 1624 Rocket 4.2 22:08:59 10° NNW 22:14:12 62° ENE 22:16:57 27° SE
NOSS 3-4 (A) 3.8 22:07:33 10° NW 22:14:33 87° NE 22:19:46 22° SE
NOSS 3-4 (C) 3.8 22:07:41 10° NW 22:14:39 87° NE 22:19:55 22° SE
Cosmos 2237 Rocket 2.1 22:14:58 21° SSW 22:18:53 77° ESE 22:24:36 10° NNE
Genesis I 3.3 22:18:35 41° S 22:19:33 53° ESE 22:23:21 10° NE
Cosmos 2344 3.6 22:16:02 18° SSW 22:21:31 56° ESE 22:29:15 10° NE
Cosmos 2219 Rocket 3.3 22:16:16 10° SW 22:21:34 42° NW 22:26:55 10° NNE
Elektron 1 4.2 22:21:21 29° SW 22:22:57 78° SE 22:28:21 10° NE
Atlas Centaur 2 4.4 22:19:49 10° SW 22:21:21 13° SSW 22:21:21 13° SSW
DELTA 2 R/B (1) 4.2 22:24:36 10° SW 22:29:32 32° S 22:30:03 32° SSE
Thor Agena Rocket 3.4 22:25:29 10° NNE 22:30:38 86° ESE 22:33:18 29° SSW
Cosmos 2333 Rocket 3.7 22:26:37 10° WSW 22:31:50 36° NW 22:37:07 10° NNE
Cosmos 2221 4.2 22:33:22 10° NNW 22:37:01 26° W 22:39:20 17° SW
BREEZE-M DEB (TANK) 1.2 22:37:32 10° WNW 22:41:15 83° SSW 22:41:22 80° SSE
Iridium 2 4.0 22:37:31 10° NNW 22:41:18 57° W 22:42:26 39° SSW
Cosmos 1371 Rocket 4.0 22:36:42 10° NNW 22:41:58 72° WSW 22:44:15 34° S
ATLAS 2AS CENTAUR R/B 2.8 22:34:55 10° NW 22:42:29 73° SW 22:46:25 28° SSE
EO 1 Del DPAF 3.3 22:39:57 10° N 22:43:43 71° WNW 22:44:59 39° SSW
Cosmos 1892 4.0 22:42:00 20° SW 22:43:59 33° WNW 22:47:28 10° N
MOS 1-B Rocket 4.4 22:37:43 10° NNE 22:45:35 88° WNW 22:49:56 24° SSW
Cosmos 1766 Rocket 3.7 22:44:24 40° SSE 22:45:41 57° E 22:50:02 10° NNE
Okean 3 Rocket 3.6 22:47:02 41° SSE 22:48:30 71° E 22:52:56 10° NNE
Cosmos 1328 Rocket 3.8 22:44:45 10° N 22:49:01 56° ENE 22:50:25 37° SE
Aureole 2 Rocket 1.9 22:46:12 10° NNW 22:48:59 76° NE 22:48:59 76° NE
USA 215 3.8 22:43:30 10° NE 22:49:57 61° NNW 22:56:22 10° WSW
Cosmos 1606 2.7 22:47:29 10° N 22:51:23 75° E 22:52:19 49° SSE
Cosmos 2112 Rocket 4.3 22:48:24 22° SW 22:51:54 68° WNW 22:57:17 10° NNE
Cosmos 2278 Rocket 3.3 22:47:35 10° NW 22:52:35 33° WSW 22:54:59 23° SSW
Cosmos 2218 Rocket 4.2 22:50:54 30° SSE 22:54:00 61° E 23:00:13 10° NNE
Cosmos 2297 3.7 22:48:33 10° NNW 22:54:20 83° ENE 22:57:11 31° SSE
Cosmos 158 Rocket 4.3 22:52:56 20° SW 22:56:08 56° WNW 23:00:59 10° NNE
Cosmos 1420 Rocket 4.1 22:52:53 10° NNW 22:58:11 77° ENE 23:00:36 33° SSE
Cosmos 2366 rocket 4.2 22:56:35 31° SSE 22:59:40 64° E 23:05:57 10° NNE
Lacrosse 5 rocket 3.1 22:56:49 10° NW 23:00:28 30° NNE 23:03:54 10° E
Cosmos 1943 Rocket 2.9 22:55:24 10° NNW 23:00:56 49° NE 23:04:40 20° ESE
Cosmos 1633 3.9 23:01:11 26° E 23:01:33 26° E 23:04:37 10° NNE
SL-16 R/B 2.2 23:00:46 34° S 23:03:13 66° ESE 23:08:52 10° NNE
Cosmos 1408 4.1 23:03:24 22° WSW 23:04:49 29° WNW 23:08:00 10° N
Cosmos 2056 Rocket 3.9 23:00:35 10° NNW 23:05:51 54° WSW 23:07:58 34° SSW
Cosmos 1959 Rocket 4.5 23:06:20 33° S 23:09:17 76° E 23:15:29 10° NNE
Cosmos 1743 Rocket 4.5 23:12:36 30° ESE 23:13:41 35° E 23:17:38 10° NNE
Cosmos 2341 Rocket 4.2 23:11:46 26° SSW 23:15:21 64° WNW 23:21:33 10° N
Cosmos 332 Rocket 3.8 23:14:45 10° NNW 23:19:34 75° ENE 23:21:28 37° SE
USA 267 4.0 23:21:24 29° SSW 23:23:23 34° SW 23:29:17 10° WNW
Meteor 2-3 Rocket 3.7 23:21:02 36° S 23:23:27 77° E 23:29:10 10° NNE
IRIDIUM 104 4.4 23:23:26 35° SSW 23:25:38 71° W 23:30:52 10° N
Cosmos 2151 4.1 23:23:52 24° WSW 23:25:44 36° WNW 23:29:43 10° N
Helios 1A 2.9 23:24:53 48° SSE 23:26:00 88° WSW 23:30:12 10° NNW
Cosmos 405 3.3 23:25:03 10° N 23:28:33 56° ENE 23:29:08 48° ESE
Meteor 1-26 Rocket 4.3 23:26:37 10° NNW 23:32:39 80° W 23:35:20 35° S
Cosmos 1452 Rocket 3.4 23:27:42 10° NNW 23:33:00 83° WSW 23:35:06 38° SSE
CZ-4C R/B 3.5 23:27:04 10° NW 23:33:56 57° NE 23:41:55 10° ESE
SL-8 Rocket 4.2 23:30:59 27° SSW 23:34:19 61° WNW 23:40:26 10° N
Cosmos 1825 4.1 23:32:56 17° WSW 23:34:33 22° WNW 23:37:36 10° NNW
COSMOS 2455 2.8 23:28:52 10° NW 23:34:57 87° ENE 23:38:24 27° SE
Cosmos 1340 2.8 23:34:23 50° SW 23:35:09 66° WNW 23:38:55 10° N
PSLV R/B 4.2 23:31:32 10° NNE 23:35:34 41° E 23:36:34 35° SE
ALOS 2 3.6 23:35:27 29° SW 23:36:34 34° W 23:40:36 10° NNW
Cosmos 1408 Rocket 3.6 23:35:56 43° SSW 23:37:17 71° W 23:41:42 10° N
Cosmos 1933 3.9 23:33:34 10° NNW 23:37:24 44° W 23:38:13 38° SW
SL-16 R/B 4.4 23:33:33 10° ESE 23:38:26 25° NE 23:43:21 10° N
Cosmos 1151 Rocket 3.7 23:34:50 10° NNW 23:38:57 42° W 23:40:03 35° SW
Cosmos 1727 Rocket 4.0 23:38:51 10° NNW 23:45:05 76° W 23:48:04 33° S
APEX 3.4 23:42:25 10° NW 23:44:22 37° WNW 23:44:22 37° WNW
Cosmos 2369 Rocket 2.3 23:39:55 10° NNW 23:45:32 72° ENE 23:48:49 26° SE
Resurs 1-4 Rocket 4.3 23:42:55 10° NE 23:45:45 14° E 23:48:32 10° ESE
Cosmos 44 3.5 23:43:38 26° WSW 23:45:54 57° NW 23:50:18 10° NNE
Cosmos 1500 Rocket 3.6 23:44:49 45° SSE 23:46:05 73° E 23:50:28 10° NNE
GP-B 4.3 23:43:11 10° NNW 23:47:12 34° W 23:48:50 25° WSW
SL-4 R/B 3.5 23:48:59 12° NW 23:48:59 12° NW 23:49:16 10° NW
ISS -1.1 23:51:00 11° E 23:51:00 11° E 23:51:10 10° E
Cosmos 371 Rocket 3.8 23:44:32 10° NW 23:49:09 44° WSW 23:50:25 36° SW
SeaSat 1 4.2 23:46:30 10° ENE 23:49:56 19° ESE 23:51:20 17° SE
Helios 1B rocket 2.8 23:50:19 10° NNE 23:54:23 53° E 23:55:23 42° SSE
CREW DRAGON DEMO-1 DEB 3.6 23:54:49 25° W 23:56:21 52° NNW 23:59:22 10° ENE
